Weather History for KAUO - January, 2013

Change the Weather History Date:

Thursday, January 17, 2013

  Actual Average Record
Temperature  
Mean Temperature 47 °F -  
Max Temperature 57 °F - 72 °F (1990)
Min Temperature 36 °F - 7 °F (1977)
Degree Days  
Heating Degree Days 18    
Month to date heating degree days 169  
Since 1 July heating degree days 843  
Moisture  
Dew Point 37 °F    
Average Humidity 82    
Maximum Humidity 93    
Minimum Humidity 70    
Precipitation  
Precipitation 0.08 in - 1.54 in (2006)
Month to date precipitation 2.73  
Year to date precipitation 2.73  
Sea Level Pressure  
Sea Level Pressure 29.98 in    
Wind  
Wind Speed 13 mph (West)    
Max Wind Speed 21 mph    
Max Gust Speed 29 mph    
Visibility 7 miles    
Events      
T = Trace of Precipitation, MM = Missing Value Source: NWS Daily Summary

Daily Weather History Graph

Daily Weather History Graph

Search for Another Location

Airport or City:

Trip Planner

Search our weather history database for the weather conditions in past years. The results will help you decide how hot, cold, wet, or windy it might be!

Date:

Astronomy

Jan. 17, 2013 Rise Set
Actual Time 6:43 AM CST 5:00 PM CST
Civil Twilight 6:16 AM CST 5:27 PM CST
Nautical Twilight 5:46 AM CST 5:57 PM CST
Astronomical Twilight 5:17 AM CST 6:27 PM CST
Moon 10:14 AM CST (1/17) 11:25 PM CST (1/17)
Length of Visible Light 11h 10m
Length of Day
10h 17m
Waxing Crescent, 38% of the Moon is Illuminated
Jan 17
Waxing Crescent
Jan 18
First Quarter
Jan 26
Full
Feb 3
Last Quarter
Feb 10
New

Hourly Weather History & Observations

Time (CST) Temp. Windchill Dew Point Humidity Pressure Visibility Wind Dir Wind Speed Gust Speed Precip Events Conditions
12:15 AM 57.2 °F - 53.6 °F 88% 29.90 in 10.0 mi East 5.8 mph - N/A   Overcast
12:35 AM 57.2 °F - 53.6 °F 88% 29.91 in 10.0 mi ESE 3.5 mph - N/A   Overcast
12:55 AM 57.2 °F - 53.6 °F 88% 29.89 in 10.0 mi East 8.1 mph - N/A   Overcast
1:15 AM 57.2 °F - 53.6 °F 88% 29.89 in 10.0 mi ESE 4.6 mph - 0.02 in   Overcast
1:35 AM 57.2 °F - 53.6 °F 88% 29.89 in 8.0 mi SSE 4.6 mph - 0.02 in   Overcast
1:55 AM 55.4 °F - 51.8 °F 88% 29.89 in 0.8 mi WSW 10.4 mph - 0.04 in   Overcast
2:15 AM 53.6 °F - 50.0 °F 88% 29.88 in 0.5 mi WSW 5.8 mph - N/A   Overcast
2:35 AM 53.6 °F - 50.0 °F 88% 29.88 in 0.2 mi WSW 5.8 mph - N/A   Overcast
2:55 AM 51.8 °F - 48.2 °F 88% 29.88 in 0.2 mi WSW 9.2 mph - N/A   Overcast
3:35 AM 51.8 °F - 46.4 °F 82% 29.88 in 0.5 mi WSW 9.2 mph - N/A   Overcast
3:55 AM 51.8 °F - 46.4 °F 82% 29.87 in 1.8 mi SW 8.1 mph - N/A   Overcast
4:15 AM 50.0 °F - 46.4 °F 87% 29.87 in 2.0 mi SW 8.1 mph - N/A   Overcast
4:35 AM 48.2 °F - 46.4 °F 93% 29.86 in 1.8 mi SW 8.1 mph - 0.01 in   Overcast
4:55 AM 48.2 °F - 46.4 °F 93% 29.85 in 3.0 mi Calm Calm - 0.01 in   Overcast
5:15 AM 48.2 °F - 44.6 °F 87% 29.86 in 5.0 mi Calm Calm - N/A   Overcast
5:35 AM 48.2 °F - 44.6 °F 87% 29.85 in 1.8 mi WSW 6.9 mph - N/A   Overcast
5:55 AM 46.4 °F 41.9 °F 44.6 °F 93% 29.85 in 1.5 mi WSW 9.2 mph 17.3 mph N/A   Overcast
6:15 AM 46.4 °F 40.7 °F 42.8 °F 87% 29.87 in 3.0 mi WSW 12.7 mph - 0.01 in   Overcast
6:35 AM 44.6 °F 38.4 °F 41.0 °F 87% 29.87 in 3.0 mi WSW 12.7 mph 17.3 mph 0.01 in   Overcast
6:55 AM 44.6 °F 36.6 °F 41.0 °F 87% 29.89 in 3.0 mi SW 19.6 mph 23.0 mph 0.02 in   Overcast
7:15 AM 42.8 °F 35.8 °F 39.2 °F 87% 29.89 in 3.0 mi WSW 13.8 mph 19.6 mph N/A   Overcast
7:35 AM 42.8 °F 36.6 °F 39.2 °F 87% 29.89 in 3.0 mi WSW 11.5 mph 16.1 mph N/A   Overcast
7:55 AM 41.0 °F 33.1 °F 37.4 °F 87% 29.90 in 4.0 mi SW 15.0 mph 24.2 mph N/A   Overcast
8:15 AM 41.0 °F 32.2 °F 37.4 °F 87% 29.91 in 9.0 mi SW 18.4 mph 23.0 mph N/A   Overcast
8:35 AM 39.2 °F 32.0 °F 37.4 °F 93% 29.91 in 5.0 mi SW 11.5 mph - N/A   Overcast
8:55 AM 39.2 °F 29.3 °F 37.4 °F 93% 29.91 in 3.0 mi SW 20.7 mph 24.2 mph N/A   Overcast
9:15 AM 39.2 °F 31.2 °F 35.6 °F 87% 29.92 in 4.0 mi SW 13.8 mph 23.0 mph N/A   Overcast
9:35 AM 39.2 °F 30.2 °F 35.6 °F 87% 29.92 in 3.0 mi SW 17.3 mph 26.5 mph N/A   Overcast
9:55 AM 39.2 °F 30.8 °F 35.6 °F 87% 29.92 in 3.0 mi SW 15.0 mph 24.2 mph N/A   Overcast
10:15 AM 39.2 °F 30.5 °F 35.6 °F 87% 29.91 in 4.0 mi SW 16.1 mph 23.0 mph N/A   Overcast
10:35 AM 39.2 °F 31.2 °F 35.6 °F 87% 29.90 in 10.0 mi SW 13.8 mph 21.9 mph N/A   Overcast
10:55 AM 39.2 °F 30.5 °F 33.8 °F 81% 29.90 in 10.0 mi WSW 16.1 mph 28.8 mph N/A   Overcast
11:15 AM 37.4 °F 27.2 °F 33.8 °F 87% 29.90 in 10.0 mi WSW 19.6 mph 26.5 mph N/A   Overcast
11:35 AM 37.4 °F 27.8 °F 33.8 °F 87% 29.90 in 7.0 mi WSW 17.3 mph 23.0 mph N/A   Overcast
11:55 AM 37.4 °F 27.5 °F 33.8 °F 87% 29.89 in 8.0 mi WSW 18.4 mph 27.6 mph N/A   Overcast
12:15 PM 37.4 °F 26.9 °F 32.0 °F 81% 29.89 in 10.0 mi SW 20.7 mph 28.8 mph N/A   Overcast
12:35 PM 37.4 °F 28.9 °F 32.0 °F 81% 29.88 in 10.0 mi WSW 13.8 mph 26.5 mph N/A   Overcast
12:55 PM 37.4 °F 29.3 °F 32.0 °F 81% 29.88 in 10.0 mi WSW 12.7 mph 24.2 mph N/A   Overcast
1:15 PM 37.4 °F 27.8 °F 32.0 °F 81% 29.89 in 7.0 mi SW 17.3 mph 23.0 mph N/A   Overcast
1:35 PM 35.6 °F 27.5 °F 32.0 °F 87% 29.89 in 5.0 mi West 11.5 mph 21.9 mph 0.01 in   Overcast
1:55 PM 35.6 °F 26.6 °F 30.2 °F 81% 29.91 in 9.0 mi West 13.8 mph 23.0 mph 0.01 in   Overcast
2:15 PM 35.6 °F 27.5 °F 30.2 °F 81% 29.91 in 10.0 mi West 11.5 mph 16.1 mph N/A   Overcast
2:35 PM 35.6 °F 27.5 °F 30.2 °F 81% 29.92 in 10.0 mi West 11.5 mph 24.2 mph N/A   Overcast
2:55 PM 35.6 °F 27.1 °F 30.2 °F 81% 29.94 in 10.0 mi West 12.7 mph 20.7 mph N/A   Overcast
3:15 PM 35.6 °F 25.9 °F 30.2 °F 81% 29.96 in 10.0 mi West 16.1 mph 23.0 mph N/A   Overcast
3:35 PM 35.6 °F 25.9 °F 30.2 °F 81% 29.97 in 10.0 mi WNW 16.1 mph 20.7 mph N/A   Overcast
3:55 PM 35.6 °F 25.9 °F 30.2 °F 81% 29.98 in 10.0 mi WNW 16.1 mph 25.3 mph N/A   Overcast
4:15 PM 37.4 °F 28.2 °F 30.2 °F 75% 30.00 in 10.0 mi NW 16.1 mph 27.6 mph N/A   Overcast
4:35 PM 37.4 °F 28.9 °F 30.2 °F 75% 30.01 in 10.0 mi WNW 13.8 mph 25.3 mph N/A   Overcast
4:55 PM 37.4 °F 28.2 °F 30.2 °F 75% 30.03 in 10.0 mi WNW 16.1 mph 23.0 mph N/A   Overcast
5:15 PM 37.4 °F 27.2 °F 30.2 °F 75% 30.04 in 10.0 mi NW 19.6 mph 27.6 mph N/A   Overcast
5:35 PM 37.4 °F 28.2 °F 30.2 °F 75% 30.07 in 10.0 mi NW 16.1 mph 23.0 mph N/A   Overcast
5:55 PM 37.4 °F 28.5 °F 30.2 °F 75% 30.07 in 10.0 mi NW 15.0 mph 24.2 mph N/A   Overcast
6:15 PM 37.4 °F 28.5 °F 30.2 °F 75% 30.10 in 10.0 mi NW 15.0 mph 21.9 mph N/A   Overcast
6:35 PM 37.4 °F 28.9 °F 30.2 °F 75% 30.11 in 10.0 mi NW 13.8 mph 18.4 mph N/A   Overcast
6:55 PM 37.4 °F 27.8 °F 30.2 °F 75% 30.13 in 10.0 mi NW 17.3 mph 25.3 mph N/A   Overcast
7:15 PM 37.4 °F 27.8 °F 30.2 °F 75% 30.13 in 10.0 mi NW 17.3 mph 24.2 mph N/A   Overcast
7:35 PM 39.2 °F 31.2 °F 30.2 °F 70% 30.14 in 10.0 mi NNW 13.8 mph 19.6 mph N/A   Overcast
7:55 PM 37.4 °F 28.9 °F 30.2 °F 75% 30.16 in 10.0 mi NNW 13.8 mph 21.9 mph N/A   Mostly Cloudy
8:15 PM 37.4 °F 28.5 °F 30.2 °F 75% 30.17 in 10.0 mi NW 15.0 mph - N/A   Partly Cloudy
8:55 PM 39.2 °F 29.6 °F 30.2 °F 70% 30.18 in 10.0 mi NNW 19.6 mph 24.2 mph N/A   Clear
9:15 PM 39.2 °F 30.8 °F 30.2 °F 70% 30.19 in 10.0 mi NNW 15.0 mph 20.7 mph N/A   Clear
9:35 PM 39.2 °F 31.2 °F 30.2 °F 70% 30.20 in 10.0 mi North 13.8 mph 20.7 mph N/A   Clear
9:55 PM 39.2 °F 31.6 °F 30.2 °F 70% 30.21 in 10.0 mi North 12.7 mph - N/A   Clear
10:15 PM 39.2 °F 32.0 °F 30.2 °F 70% 30.22 in 10.0 mi NNW 11.5 mph 17.3 mph N/A   Clear
10:35 PM 39.2 °F 30.8 °F 30.2 °F 70% 30.22 in 10.0 mi North 15.0 mph 20.7 mph N/A   Clear
10:55 PM 39.2 °F 31.2 °F 30.2 °F 70% 30.22 in 10.0 mi North 13.8 mph 20.7 mph N/A   Clear
11:15 PM 39.2 °F 31.2 °F 30.2 °F 70% 30.23 in 10.0 mi North 13.8 mph 21.9 mph N/A   Clear
11:35 PM 39.2 °F 31.2 °F 30.2 °F 70% 30.24 in 10.0 mi North 13.8 mph 23.0 mph N/A   Clear
11:55 PM 37.4 °F 28.5 °F 28.4 °F 70% 30.25 in 10.0 mi North 15.0 mph 21.9 mph N/A   Clear